Holbrook, NY

2:43 PM EST on February 21, 2017 (GMT -0500)
Long Island Mac Arthur

Weather History for KISP - November, 2013

Change the Weather History Date:

Wednesday, November 13, 2013

  Actual Average Record
Temperature  
Mean Temperature 33 °F 46 °F  
Max Temperature 39 °F 54 °F 64 °F (2006)
Min Temperature 27 °F 38 °F 24 °F (2001)
Degree Days  
Heating Degree Days 32 19  
Month to date heating degree days 235 225  
Since 1 July heating degree days 557 645  
Cooling Degree Days 0 0  
Month to date cooling degree days 0 0  
Year to date cooling degree days 957 787  
Moisture  
Dew Point 15 °F    
Average Humidity 47    
Maximum Humidity 58    
Minimum Humidity 35    
Precipitation  
Precipitation 0.00 in 0.12 in 0.58 in (1988)
Month to date precipitation 0.28 1.50  
Year to date precipitation 30.89 40.01  
Snow  
Snow 0.00 in 0.00 in - ()
Month to date snowfall 0.2 0.1  
Since 1 July snowfall 0.2 0.1  
Snow Depth 0.00 in    
Sea Level Pressure  
Sea Level Pressure 30.29 in    
Wind  
Wind Speed 12 mph (NW)    
Max Wind Speed 22 mph    
Max Gust Speed 26 mph    
Visibility 10 miles    
Events      
T = Trace of Precipitation, MM = Missing Value Source: NWS Daily Summary

Daily Weather History Graph

Daily Weather History Graph

Search for Another Location

Airport or City:

Trip Planner

Search our weather history database for the weather conditions in past years. The results will help you decide how hot, cold, wet, or windy it might be!

Date:

Astronomy

Nov. 13, 2013 Rise Set
Actual Time 6:37 AM EST 4:35 PM EST
Civil Twilight 6:07 AM EST 5:04 PM EST
Nautical Twilight 5:34 AM EST 5:38 PM EST
Astronomical Twilight 5:02 AM EST 6:10 PM EST
Moon 2:22 PM EST (11/13) 2:26 AM EST (11/13)
Length of Visible Light 10h 56m
Length of Day
9h 58m
Waxing Gibbous, 84% of the Moon is Illuminated
Nov 13
Waxing Gibbous
Nov 17
Full
Nov 25
Last Quarter
Dec 2
New
Dec 9
First Quarter

Hourly Weather History & Observations

Time (EST) Temp. Windchill Dew Point Humidity Pressure Visibility Wind Dir Wind Speed Gust Speed Precip Events Conditions
12:56 AM 30.9 °F 21.2 °F 17.1 °F 57% 30.24 in 10.0 mi NNW 12.7 mph - N/A   Mostly Cloudy
1:56 AM 30.9 °F 21.7 °F 17.1 °F 57% 30.24 in 10.0 mi NNW 11.5 mph - N/A   Mostly Cloudy
2:56 AM 30.0 °F 19.1 °F 15.1 °F 54% 30.24 in 10.0 mi NNW 15.0 mph - N/A   Partly Cloudy
3:56 AM 30.0 °F 18.7 °F 15.1 °F 54% 30.25 in 10.0 mi NNW 16.1 mph - N/A   Clear
4:56 AM 28.9 °F 19.8 °F 15.1 °F 56% 30.26 in 10.0 mi NNW 10.4 mph - N/A   Clear
5:56 AM 28.0 °F 20.0 °F 16.0 °F 61% 30.28 in 10.0 mi North 8.1 mph - N/A   Partly Cloudy
6:56 AM 28.9 °F 18.2 °F 16.0 °F 58% 30.30 in 10.0 mi NNW 13.8 mph - N/A   Scattered Clouds
7:56 AM 30.9 °F 20.7 °F 16.0 °F 54% 30.32 in 10.0 mi NNW 13.8 mph 24.2 mph N/A   Scattered Clouds
8:56 AM 32.0 °F 20.1 °F 16.0 °F 52% 30.32 in 10.0 mi NNW 19.6 mph 25.3 mph N/A   Scattered Clouds
9:56 AM 34.0 °F 24.6 °F 17.1 °F 50% 30.33 in 10.0 mi North 13.8 mph - N/A   Partly Cloudy
10:56 AM 35.1 °F 24.8 °F 16.0 °F 46% 30.31 in 10.0 mi NW 17.3 mph 24.2 mph N/A   Partly Cloudy
11:56 AM 36.0 °F 25.6 °F 15.1 °F 43% 30.29 in 10.0 mi NW 18.4 mph 26.5 mph N/A   Partly Cloudy
12:56 PM 37.0 °F 27.0 °F 15.1 °F 41% 30.29 in 10.0 mi NW 18.4 mph 23.0 mph N/A   Partly Cloudy
1:56 PM 37.9 °F 28.9 °F 12.9 °F 36% 30.28 in 10.0 mi NW 16.1 mph 23.0 mph N/A   Clear
2:56 PM 37.9 °F 30.0 °F 12.9 °F 36% 30.28 in 10.0 mi NW 12.7 mph 21.9 mph N/A   Clear
3:56 PM 37.9 °F 32.1 °F 12.0 °F 35% 30.28 in 10.0 mi WNW 8.1 mph - N/A   Clear
4:56 PM 34.0 °F 28.8 °F 10.9 °F 38% 30.30 in 10.0 mi WNW 5.8 mph - N/A   Clear
5:56 PM 32.0 °F 26.4 °F 12.0 °F 44% 30.32 in 10.0 mi WSW 5.8 mph - N/A   Clear
6:56 PM 32.0 °F 24.8 °F 12.9 °F 45% 30.32 in 10.0 mi West 8.1 mph - N/A   Clear
7:56 PM 30.9 °F 24.3 °F 14.0 °F 50% 30.32 in 10.0 mi WSW 6.9 mph - N/A   Clear
8:56 PM 30.9 °F 25.2 °F 15.1 °F 52% 30.31 in 10.0 mi West 5.8 mph - N/A   Clear
9:56 PM 28.9 °F 22.8 °F 15.1 °F 56% 30.30 in 10.0 mi WSW 5.8 mph - N/A   Partly Cloudy
10:56 PM 28.9 °F 23.9 °F 15.1 °F 56% 30.28 in 10.0 mi WSW 4.6 mph - N/A   Partly Cloudy
11:56 PM 30.9 °F 23.5 °F 17.1 °F 57% 30.26 in 10.0 mi West 8.1 mph - N/A   Partly Cloudy